{"data":{"norad_id":58029,"intl_designator":"2023-156B","name":"STARLINK-30518","alt_names":[],"object_type":"PAYLOAD","status":"ACTIVE","operator":null,"country":"US","launch_date":"2023-10-09","launch_site_code":"AFWTR","launch_vehicle":null,"mission":null,"orbit_class":"UNKNOWN","rcs_meters":null,"size_class":null,"mass_kg":null,"dimensions":null,"purposes":["comms"],"wikipedia_slug":null,"has_3d_model":false,"image_url":null,"decayed_at":null,"tle_current":{"epoch":"2026-05-25T03:33:58.589856Z","epoch_age_seconds":65494,"freshness":"FRESH","line1":"1 58029U 23156B   26145.14859479  .00002806  00000+0  10684-3 0  9993","line2":"2 58029  53.1615  83.1363 0001422  80.8135 279.3027 15.30202110148025","mean_motion":15.3020211,"eccentricity":0.0001422,"inclination_deg":53.1615,"raan_deg":83.1363,"arg_perigee_deg":80.8135,"mean_anomaly_deg":279.3027,"bstar":0.00010684,"rev_number":14802,"period_min":94.105215944317,"perigee_km":474.23422357849,"apogee_km":476.1833151153,"semimajor_km":6853.3457693469,"source":"CELESTRAK","updated_at":"2026-05-25T13:38:18.494076Z"}}}